FW8564 Weather Reports


time (UTC)temp
F
wind
direction
speed
knots
gust
knots
rain 1hr
in
rain 24hr
in
rain mn
in
humidity
%
barometer
mb
20260506174746 56 270 0.0 0.0 0.04 0.67 0.98 95 1010.3
20260506174237 56 293 0.0 0.0 0.04 0.67 0.98 95 1010.3
20260506173216 57 0 0.0 0.0 0.04 0.67 0.98 95 1010.3
20260506172706 56 338 0.0 0.0 0.04 0.67 0.98 95 1010.3
20260506172156 56 68 0.0 0.0 0.01 0.65 0.96 95 1010.3
20260506171646 56 90 0.0 0.0 0.04 0.65 0.96 95 1010.2
20260506170625 56 158 0.0 0.0 0.08 0.65 0.96 95 1010.5
20260506170115 56 158 0.0 0.0 0.08 0.64 0.94 95 1010.1
20260506165606 56 135 0.0 0.0 0.09 0.64 0.94 95 1010.3
20260506165055 56 113 0.0 0.0 0.15 0.64 0.94 95 1009.9
20260506164545 56 113 0.0 0.0 0.27 0.64 0.94 95 1009.9
20260506164035 56 90 0.0 0.0 0.40 0.64 0.94 95 1010.0
20260506163525 56 90 0.0 0.0 0.53 0.64 0.94 94 1009.9
20260506163015 56 68 0.0 0.0 0.58 0.64 0.94 94 1010.0
20260506162504 56 23 0.0 0.0 0.59 0.64 0.94 94 1010.1
20260506161954 56 68 0.0 0.0 0.58 0.63 0.94 94 1009.8
20260506161444 56 68 0.0 0.0 0.56 0.60 0.91 94 1009.6
20260506160934 56 113 0.0 0.0 0.53 0.57 0.87 94 1009.7
20260506160424 55 113 0.0 0.0 0.57 0.57 0.87 93 1009.9
20260506155406 55 45 0.0 0.0 0.53 0.53 0.84 92 1010.0
20260506154853 56 45 0.0 0.0 0.46 0.46 0.77 92 1010.3
20260506154343 57 293 0.0 0.0 0.30 0.30 0.61 92 1010.7
20260506152823 57 315 0.0 0.0 0.05 0.05 0.35 89 1009.9
20260506152307 57 45 0.0 0.0 0.05 0.05 0.35 88 1009.8
20260506151244 58 68 0.0 0.0 0.05 0.05 0.35 85 1009.4
20260506150733 58 68 0.0 0.0 0.02 0.02 0.34 83 1009.3
20260506145712 60 113 0.0 0.0 0.00 0.00 0.31 79 1009.1
20260506145202 61 90 0.0 0.0 0.00 0.00 0.31 77 1009.3
20260506144653 61 68 0.0 0.0 0.00 0.00 0.31 76 1009.3
20260506144142 61 90 0.0 0.0 0.00 0.00 0.31 75 1009.3
20260506143632 61 135 0.0 0.0 0.00 0.00 0.31 75 1009.3
20260506143122 62 90 0.0 0.0 0.00 0.00 0.31 75 1009.3
20260506142613 62 90 0.0 0.0 0.00 0.00 0.31 74 1009.4
20260506142102 62 113 0.0 0.0 0.00 0.00 0.31 73 1009.5
20260506141552 63 113 0.0 0.0 0.00 0.00 0.31 73 1009.2
20260506141041 63 113 0.0 0.0 0.00 0.00 0.31 72 1009.4
20260506140537 63 90 0.0 0.0 0.00 0.00 0.31 72 1009.4
20260506140021 63 158 0.0 0.0 0.00 0.00 0.31 71 1009.3
20260506135001 65 135 0.0 0.0 0.00 0.00 0.31 69 1009.7
20260506134451 64 113 0.0 0.0 0.00 0.00 0.31 72 1009.3
20260506133941 63 90 0.0 0.0 0.00 0.00 0.31 71 1009.4
20260506133431 63 135 0.0 0.0 0.00 0.00 0.31 71 1009.9
20260506132921 64 135 0.0 0.0 0.00 0.00 0.31 70 1009.9
20260506131351 64 113 0.0 0.0 0.00 0.00 0.31 70 1009.7
20260506130840 64 90 0.0 0.0 0.00 0.00 0.31 70 1009.9
20260506130330 64 113 0.0 0.0 0.00 0.00 0.31 69 1009.9
20260506125820 65 90 0.0 0.0 0.00 0.00 0.31 69 1009.8
20260506125309 66 113 0.0 0.0 0.00 0.00 0.31 69 1009.9
20260506124800 65 203 0.0 0.0 0.00 0.00 0.31 68 1009.8
20260506124249 64 113 0.0 0.0 0.00 0.00 0.31 72 1009.7
20260506123740 62 113 0.0 0.0 0.00 0.00 0.31 74 1009.9
20260506123229 62 135 0.0 0.0 0.00 0.00 0.31 74 1010.0
20260506122719 63 113 0.0 0.0 0.00 0.00 0.31 74 1010.0
20260506122209 62 135 0.0 0.0 0.00 0.00 0.31 74 1010.0
20260506121158 60 135 0.0 0.0 0.00 0.00 0.31 77 1009.9
20260506120639 61 135 0.0 0.0 0.00 0.00 0.31 78 1010.0
20260506120128 61 158 0.0 0.0 0.00 0.00 0.31 74 1009.9
20260506114558 63 158 0.0 0.0 0.00 0.00 0.31 72 1009.9
20260506114048 63 135 0.0 0.0 0.00 0.00 0.31 72 1010.1
20260506113538 66 158 0.0 0.0 0.00 0.00 0.31 71 1009.9
20260506113029 65 135 0.0 0.0 0.00 0.00 0.31 70 1009.8
20260506112518 66 90 0.0 0.0 0.00 0.00 0.31 71 1009.7
20260506112008 65 135 0.0 0.0 0.00 0.00 0.31 71 1010.0
20260506111458 64 113 0.0 0.0 0.00 0.00 0.31 73 1010.3
20260506110437 63 113 0.0 0.0 0.00 0.00 0.31 73 1010.5
20260506105927 64 113 0.0 0.0 0.00 0.00 0.31 71 1010.1
20260506105417 64 90 0.0 0.0 0.00 0.00 0.31 73 1010.2
20260506104907 63 158 0.0 0.0 0.00 0.00 0.31 73 1010.0
20260506104357 63 113 0.0 0.0 0.00 0.00 0.31 71 1010.2
20260506103847 63 90 0.0 0.0 0.00 0.00 0.31 73 1010.5
20260506103336 63 158 0.0 0.0 0.00 0.00 0.31 75 1010.4
20260506102827 62 135 0.0 0.0 0.00 0.00 0.31 75 1010.4
20260506101806 64 113 0.0 0.0 0.00 0.00 0.31 74 1010.4
20260506101256 63 135 0.0 0.0 0.00 0.00 0.31 74 1010.4
20260506100746 64 158 0.0 0.0 0.00 0.00 0.31 70 1010.4
20260506100236 65 248 0.0 0.0 0.00 0.00 0.31 68 1010.7
20260506095725 65 248 0.0 0.0 0.00 0.00 0.31 70 1010.6
20260506095216 64 203 0.0 0.0 0.00 0.00 0.31 70 1010.7
20260506094706 65 225 0.0 0.0 0.00 0.00 0.31 69 1010.8
20260506094155 65 203 0.0 0.0 0.00 0.00 0.31 71 1010.7
20260506093645 64 248 0.0 0.0 0.00 0.00 0.31 71 1010.6
20260506093136 64 180 0.0 0.0 0.00 0.00 0.31 72 1010.6
20260506092625 64 135 0.0 0.0 0.00 0.00 0.31 73 1010.5
20260506091605 63 248 0.0 0.0 0.00 0.00 0.31 74 1010.6
20260506091055 64 90 0.0 0.0 0.00 0.00 0.31 74 1010.4
20260506090545 62 158 0.0 0.0 0.00 0.00 0.31 74 1010.5
20260506090034 62 158 0.0 0.0 0.00 0.00 0.31 76 1010.4
20260506085525 62 113 0.0 0.0 0.00 0.00 0.31 77 1010.4
20260506085015 61 135 0.0 0.0 0.00 0.00 0.31 77 1010.3
20260506084505 62 90 0.0 0.0 0.00 0.00 0.31 76 1010.5
20260506083954 60 158 0.0 0.0 0.00 0.00 0.31 76 1010.5
20260506083444 61 113 0.0 0.0 0.00 0.00 0.31 76 1010.2
20260506082934 62 113 0.0 0.0 0.00 0.00 0.31 78 1010.4
20260506082424 60 158 0.0 0.0 0.00 0.00 0.31 80 1010.4
20260506081913 61 158 0.0 0.0 0.00 0.00 0.31 80 1010.2
20260506081403 60 113 0.0 0.0 0.00 0.00 0.31 81 1010.4
20260506080853 59 158 0.0 0.0 0.00 0.00 0.31 83 1010.4
20260506080343 59 180 0.0 0.0 0.00 0.00 0.31 84 1010.4
20260506073243 55 90 0.0 0.0 0.00 0.00 0.31 92 1010.4
20260506072223 55 90 0.0 0.0 0.00 0.00 0.31 93 1010.4
20260506071712 55 90 0.0 0.0 0.00 0.00 0.31 93 1010.4
20260506071203 54 90 0.0 0.0 0.00 0.00 0.31 93 1010.3
20260506070652 54 68 0.0 0.0 0.00 0.00 0.31 93 1010.5
20260506070142 54 68 0.0 0.0 0.00 0.00 0.31 94 1010.4
20260506062021 53 113 0.0 0.0 0.00 0.00 0.31 94 1010.3
20260506061520 53 135 0.0 0.0 0.00 0.00 0.31 94 1010.2
20260506061001 53 135 0.0 0.0 0.00 0.00 0.31 94 1010.2
20260506051310 52 135 0.0 0.0 0.00 0.00 0.31 94 1009.6
20260506050759 53 135 0.0 0.0 0.00 0.00 0.31 94 1009.5
20260506050250 52 135 0.0 0.0 0.00 0.00 0.31 94 1009.5
20260506044720 52 135 0.0 0.0 0.00 0.00 0.31 94 1009.3
20260506044209 52 135 0.0 0.0 0.00 0.00 0.31 94 1009.3
20260506043659 51 135 0.0 0.0 0.00 0.00 0.31 94 1009.3
20260506043150 51 135 0.0 0.0 0.00 0.00 0.31 94 1009.2
20260506042639 52 135 0.0 0.0 0.00 0.00 0.31 94 1009.0
20260506042128 52 135 0.0 0.0 0.00 0.00 0.31 94 1009.4
20260506041108 51 135 0.0 0.0 0.00 0.00 0.31 94 1009.3
20260506040559 51 135 0.0 0.0 0.00 0.00 0.31 94 1008.9
20260506040048 51 135 0.0 0.0 0.00 0.00 0.31 93 1008.9
20260506035538 51 135 0.0 0.0 0.00 0.00 0.31 93 1009.1
20260506035028 51 135 0.0 0.0 0.00 0.00 0.31 93 1009.0
20260506034008 50 135 0.0 0.0 0.00 0.00 0.31 93 1008.9
20260506033458 50 135 0.0 0.0 0.00 0.00 0.31 93 1009.0
20260506032947 50 113 0.0 0.0 0.00 0.00 0.31 93 1008.8
20260506032437 50 113 0.0 0.0 0.00 0.00 0.31 93 1009.0
20260506031927 50 113 0.0 0.0 0.00 0.00 0.31 93 1009.0
20260506031417 50 113 0.0 0.0 0.00 0.00 0.31 93 1008.8
20260506030907 50 113 0.0 0.0 0.00 0.00 0.31 92 1009.1
20260506030357 50 135 0.0 0.0 0.00 0.00 0.31 92 1009.1
20260506025846 50 135 0.0 0.0 0.00 0.00 0.31 92 1008.7
20260506025339 50 135 0.0 0.0 0.00 0.00 0.31 92 1009.0
20260506024826 49 135 0.0 0.0 0.00 0.00 0.31 92 1009.0
20260506024316 49 135 0.0 0.0 0.00 0.00 0.31 92 1008.9
20260506023807 49 135 0.0 0.0 0.00 0.00 0.31 92 1008.6
20260506023256 49 135 0.0 0.0 0.00 0.00 0.31 91 1008.7
20260506022746 49 158 0.0 0.0 0.00 0.00 0.31 91 1008.7
20260506022236 49 158 0.0 0.0 0.00 0.00 0.31 91 1008.6
20260506021726 49 158 0.0 0.0 0.00 0.00 0.31 91 1008.6
20260506021216 49 158 0.0 0.0 0.00 0.00 0.31 90 1009.0
20260506020706 50 158 0.0 0.0 0.00 0.00 0.31 90 1008.7
20260506020156 51 158 0.0 0.0 0.00 0.00 0.31 90 1008.7
20260506015646 50 158 0.0 0.0 0.00 0.00 0.31 90 1008.6
20260506014625 50 158 0.0 0.0 0.00 0.00 0.31 89 1008.8
20260506014114 50 158 0.0 0.0 0.00 0.00 0.31 89 1008.7
20260506013604 51 158 0.0 0.0 0.00 0.00 0.31 89 1008.6
20260506013055 50 158 0.0 0.0 0.00 0.00 0.31 88 1008.7
20260506012544 51 158 0.0 0.0 0.00 0.00 0.31 88 1008.6
20260506012034 51 158 0.0 0.0 0.00 0.00 0.31 87 1008.7
20260506011525 52 158 0.0 0.0 0.00 0.00 0.31 87 1008.6
20260506010504 53 158 0.0 0.0 0.00 0.00 0.31 85 1008.6
20260506005954 54 293 0.0 0.0 0.00 0.00 0.31 83 1008.5
20260506004934 54 270 0.0 0.0 0.00 0.00 0.31 82 1008.8
20260506004424 54 248 0.0 0.0 0.00 0.00 0.31 83 1008.8
20260506003913 54 293 0.0 0.0 0.00 0.00 0.31 83 1008.8
20260506003403 53 270 0.0 0.0 0.00 0.00 0.31 86 1009.0
20260506002853 53 225 0.0 0.0 0.00 0.00 0.31 88 1009.0
20260506002345 52 180 0.0 0.0 0.00 0.00 0.31 88 1008.9
20260506001833 52 113 0.0 0.0 0.00 0.00 0.31 88 1008.8
20260506000145 58 315 0.0 0.0 0.00 0.00 0.00 91 1008.9
20260505235959 52 315 0.0 0.0 0.00 0.33 0.00 89 1008.9
20260505235448 52 315 0.0 0.0 0.00 0.33 0.00 89 1008.9
20260505234939 52 315 0.0 0.0 0.00 0.33 0.00 89 1009.0
20260505234429 53 293 0.0 0.0 0.00 0.33 0.00 89 1009.0
20260505233408 52 293 0.0 0.0 0.00 0.33 0.00 90 1009.4
20260505232858 52 225 0.0 0.0 0.00 0.33 0.00 90 1009.5
20260505232349 51 248 0.0 0.0 0.00 0.33 0.00 91 1009.4
20260505231837 51 225 0.0 0.0 0.00 0.33 0.00 91 1009.5
20260505230817 50 248 0.0 0.0 0.00 0.33 0.00 91 1009.4
20260505230308 50 248 0.0 0.0 0.00 0.33 0.00 91 1009.4
20260505225247 50 225 0.0 0.0 0.00 0.33 0.00 90 1009.4
20260505224737 51 180 0.0 0.0 0.00 0.33 0.00 89 1009.1
20260505224227 52 270 0.0 0.0 0.00 0.33 0.00 90 1009.5
20260505223718 52 293 0.0 0.0 0.00 0.33 0.00 89 1009.6
20260505223207 52 315 0.0 0.0 0.00 0.33 0.00 89 1009.4
20260505222657 51 248 0.0 0.0 0.00 0.33 0.00 88 1009.7
20260505221637 52 203 0.0 0.0 0.00 0.33 0.00 87 1009.5
20260505221126 52 203 0.0 0.0 0.00 0.33 0.00 86 1009.7
20260505220617 53 270 0.0 0.0 0.00 0.33 0.00 85 1009.4
20260505220106 54 270 0.0 0.0 0.00 0.33 0.00 85 1009.7
20260505215557 54 270 0.0 0.0 0.00 0.33 0.33 86 1009.9
20260505215046 54 315 0.0 0.0 0.00 0.33 0.33 87 1009.8
20260505214536 54 315 0.0 0.0 0.00 0.33 0.33 87 1009.9
20260505214026 54 270 0.0 0.0 0.00 0.33 0.33 87 1010.0
20260505213516 54 293 0.0 0.0 0.00 0.33 0.33 89 1010.0
20260505213006 53 270 0.0 0.0 0.00 0.33 0.33 90 1009.9
20260505212455 53 270 0.0 0.0 0.00 0.33 0.33 91 1010.0
20260505211945 53 270 0.0 0.0 0.00 0.33 0.33 91 1010.1
20260505211435 53 270 0.0 0.0 0.00 0.33 0.33 91 1010.0
20260505210925 53 0 0.0 0.0 0.00 0.33 0.33 91 1009.6
20260505210415 53 0 0.0 0.0 0.00 0.33 0.33 91 1009.6
20260505205905 53 0 0.0 0.0 0.00 0.33 0.33 91 1009.9
20260505205354 53 68 0.0 0.0 0.00 0.33 0.33 91 1009.9
20260505204844 53 315 0.0 0.0 0.00 0.33 0.33 91 1009.6
20260505203825 53 315 0.0 0.0 0.02 0.33 0.33 92 1009.6
20260505203315 53 315 0.0 0.0 0.02 0.33 0.33 92 1009.2
20260505202804 53 0 0.0 0.0 0.08 0.33 0.33 91 1009.1
20260505202254 52 315 0.0 0.0 0.08 0.33 0.33 91 1009.5
20260505200724 53 315 0.0 0.0 0.09 0.33 0.33 92 1009.5
20260505200214 53 315 0.0 0.0 0.09 0.33 0.33 92 1009.2
20260505195704 53 315 0.0 0.0 0.09 0.33 0.33 91 1009.4
20260505195154 53 338 0.0 0.0 0.09 0.33 0.33 91 1009.3
20260505194644 53 315 0.0 0.0 0.09 0.33 0.33 91 1009.1
20260505194133 53 0 0.0 0.0 0.08 0.32 0.32 91 1009.2
20260505193114 53 338 0.0 0.0 0.04 0.27 0.30 90 1009.2
20260505192602 53 338 0.0 0.0 0.01 0.25 0.25 89 1009.5
20260505192053 54 0 0.0 0.0 0.01 0.25 0.25 89 1009.5
20260505191542 54 315 0.0 0.0 0.00 0.24 0.24 88 1009.7
20260505191032 54 338 0.0 0.0 0.00 0.24 0.24 87 1009.7
20260505190522 54 338 0.0 0.0 0.00 0.24 0.24 87 1009.4
20260505190013 54 315 0.0 0.0 0.00 0.24 0.24 87 1009.1
20260505185503 55 293 0.0 0.0 0.00 0.24 0.24 86 1009.0
20260505184442 55 315 0.0 0.0 0.00 0.24 0.24 89 1008.7
20260505183932 60 113 0.0 0.0 0.00 0.24 0.24 91 1008.4
20260505183422 60 90 0.0 0.0 0.00 0.24 0.24 91 1008.4
20260505182912 60 113 0.0 0.0 0.00 0.24 0.24 91 1008.2
20260505182401 60 113 0.0 0.0 0.00 0.24 0.24 91 1008.2
20260505181851 60 158 0.0 0.0 0.00 0.24 0.24 91 1007.8
20260505181342 60 135 0.0 0.0 0.00 0.24 0.24 90 1008.0
20260505180832 60 113 0.0 0.0 0.00 0.24 0.24 90 1008.1
20260505180322 60 113 0.0 0.0 0.00 0.24 0.24 90 1008.0
20260505175300 60 90 0.0 0.0 0.00 0.24 0.24 89 1007.9